Regional Weather Roundup
Issued by NWS

Home | Current Version | Previous Version | Text Only | Print | Product List | Glossary On
Versions: 1 2 3 4 5 6 7 8 9 10 11 12 13 14 15 16 17 18 19 20 21 22 23 24 25 26 27 28 29 30 31 32 33 34 35 36 37 38 39 40 41 42 43 44 45 46 47 48 49 50
345
ASUS46 KSEW 180810
RWRWA

WASHINGTON REGIONAL WEATHER ROUNDUP
NATIONAL WEATHER SERVICE SEATTLE WA
1200 AM PST SAT NOV 18 2017

NOTE:"FAIR" INDICATES FEW OR NO CLOUDS BELOW 12,000 FEET WITH NO
SIGNIFICANT WEATHER AND/OR OBSTRUCTIONS TO VISIBILITY.

WAZ507-509-555>559-180900-
SEATTLE, TACOMA, EVERETT, AND VICINITY

CITY           SKY/WX    TMP DP  RH WIND       PRES   REMARKS
EVERETT        CLOUDY    44  39  82 SE10      30.30R
BOEING FIELD   CLOUDY    47  39  74 S7        30.32R
RENTON         CLOUDY    45  39  79 E3        30.32R
SEATAC AIRPORT CLOUDY    45  39  79 S9        30.31R
JBLM-MCCHORD   CLOUDY    42  42  99 S8        30.33R
PUYALLUP       CLOUDY    45  39  81 VRB3      30.33R
BREMERTON      LGT RAIN  41  40  96 S5        30.30F
JBLM-FT LEWIS  CLOUDY    41  41 100 SE6       30.32R
TACOMA NARROWS LGT RAIN  44  41  89 S9        30.31R
$$

WAZ001-503-506-510-514-515-180900-
NORTH INTERIOR

CITY           SKY/WX    TMP DP  RH WIND       PRES   REMARKS
BELLINGHAM     CLOUDY    46  39  76 SE8       30.27S
FRIDAY HARBOR  MOCLDY    45  41  86 SE7       30.28R
EASTSOUND      CLOUDY    46  41  81 S10       30.27S
PORT ANGELES   MOCLDY    38  37  97 CALM      30.27R
EDIZ HOOK      CLOUDY    43  39  85 S3        30.27R
PORT TOWNSEND  CLOUDY    37  37 100 CALM      30.29R
NAS WHIDBEY    MOCLDY    46  38  73 E12       30.32S
ARLINGTON      CLOUDY    45  39  79 SE8       30.32R
BURLINGTON     CLOUDY    45  41  87 SE6       30.30S
$$

WAZ020-022-039-040-504-511-512-180900-
SOUTHWEST INTERIOR

CITY           SKY/WX    TMP DP  RH WIND       PRES   REMARKS
SHELTON        CLOUDY    39  38  96 CALM      30.29R FOG
OLYMPIA        MOCLDY    41  40  96 S6        30.32S
CHEHALIS       CLOUDY    45  43  93 S7        30.34R
KELSO          CLOUDY    44  43  96 SE7       30.37R
VANCOUVER      CLOUDY    47  43  86 SE3       30.37R
SCAPPOOSE, OR  CLOUDY    37  37 100 W5        30.36R
PORTLAND, OR   CLOUDY    45  41  86 CALM      30.38R
$$

WAZ021-516-517-180900-
WASHINGTON COAST

CITY           SKY/WX    TMP DP  RH WIND       PRES   REMARKS
FORKS          CLOUDY    43  43 100 CALM      30.26R
HOQUIAM        CLOUDY    46  44  93 E6        30.31R
ASTORIA, OR    CLOUDY    42  41  96 SE7       30.32R
$$

WAZ019-023-024-040-567>569-180900-
CASCADE MOUNTAINS AND COLUMBIA GORGE

CITY           SKY/WX    TMP DP  RH WIND       PRES   REMARKS
STAMPEDE PASS  SNOW      31  30  96 VRB3      30.21S VSB 1/2
TROUTDALE, OR  CLOUDY    46  41  82 E3        30.37R
HOOD RIVER, OR PTSUNNY   37  36  93 CALM      30.36R
THE DALLES, OR MOCLDY    41  36  82 N3        30.37R
$$

WAZ026-027-041>044-520-521-180900-
EAST SLOPES

CITY           SKY/WX    TMP DP  RH WIND       PRES   REMARKS
OMAK           MOCLDY    36  28  73 S5        30.22R
WENATCHEE      MOCLDY    34  27  75 E6        30.25R
ELLENSBURG     PTCLDY    34  29  82 NW5       30.27R
YAKIMA         MOCLDY    34  27  75 SW3       30.30R
SUNNYSIDE ARPT CLOUDY    35  31  87 N5        30.31R
YAKIMA TC      FAIR      31  26  80 SE3       30.27R
$$

WAZ028-034-035-180900-
COLUMBIA BASIN

CITY           SKY/WX    TMP DP  RH WIND       PRES   REMARKS
EPHRATA        CLOUDY    38  25  59 SE6       30.25R
MOSES LAKE     CLOUDY    40  31  70 SW8       30.26R
PASCO          CLOUDY    44  35  70 W10       30.33R
RICHLAND ARPT  CLOUDY    44  36  72 S7        30.32R
HERMISTON, OR  MOCLDY    42  33  70 SW10      30.33R
$$

WAZ036>038-180900-
NORTHEAST WASHINGTON

CITY           SKY/WX    TMP DP  RH WIND       PRES   REMARKS
SPOKANE GEIGER MOCLDY    33  31  92 SW15      30.24R WCI  23
SPOKANE FELTS  MOCLDY    36  31  82 VRB3      30.27R
FAIRCHILD AFB  MOCLDY    32  32 100 S9        30.24R
COEURDALENE,ID MOCLDY    33  29  85 CALM      30.26R
DEER PARK      PTCLDY    31  26  82 S5        30.25R
$$

WAZ029>033-180900-
SOUTHEAST WASHINGTON

CITY           SKY/WX    TMP DP  RH WIND       PRES   REMARKS
PULLMAN        PTCLDY    35  29  78 SW8       30.30R
LEWISTON, ID   CLOUDY    37  30  75 CALM      30.32R
WALLA WALLA    CLOUDY    43  32  65 S10       30.33R
PENDLETON, OR  MOCLDY    37  29  72 S6        30.32R
$$




USA.gov is the U.S. government's official web portal to all federal, state and local government web resources and services.